2020-080A (46904 NORAD) Tracking and Keplerian Element Data
This shows tracking and keplerian element data for the satellite.
Feedback or suggestion? Click here.
Element | Value |
Catalog | 46904 |
Name | 2020-080A |
Epoch Orbit | 1137 |
Epoch Day | 21.06223838 |
Epoch Year | 2021 |
RAAN | 143.7053 |
Inclination | 97.4094 |
Eccentricity | 0.0014065 |
Argument of Perigee | 39.1316 |
Mean Anonmoly | 75.2676 |
Mean Motion | 15.2456229 |
Decay Rate | 8.74E-06 |
L1 | 1 46904U 20080A 21021.06223838 .00000874 00000-0 38327-4 0 9997 |
L2 | 2 46904 97.4094 143.7053 0014065 39.1316 75.2676 15.24562290 11371 |
Live tracking and technical data element details for 2020-080A (NORAD 46904). 2020-080A can be tracked NOW for your location showing map with azimuth and elevation plus other details from your city location.
Track the satellite on the map from your city or location and see movement details for azimuth, elevation, latitude, longitude, range, height, and movement on the map or in text.
IsCatalogInMostPopularTable: catalog: 46904, numindb: 32
Update: records affected: 1
GetName: 46904 2020-080A
Hit Count: updated at: Fri, 22 Jan 2021 19:47:58 GMT